FENGYUN 1C DEB, 29976

Orbit data source: Space-Track

FENGYUN 1C DEB, 29976 is space debris in SSO originally from a launch on Mon, 10 May 1999 UTC launched from the Taiyaun Space Center, China (TSC). Fengyun 1C debris stems from the Chinese weather satellite Fengyun-1C, which was intentionally destroyed by a Chinese anti-satellite missile in 2007. This event dramatically increased the amount of space debris, with thousands of trackable fragments posing hazards to satellites and human spaceflight. The Fengyun 1C debris cloud has become a focal point in discussions about space sustainability and the need for international regulations to prevent the creation of new debris.

Loading next visibility...
Identifier
29976, 1999-025LA
Orbit
SSO
Country
Flag of CNCN / PRC
Related business
Manufacturer
Unknown
Mission
Spacecraft
Bus & Motor
Unknown
Mass
Unknown
Launch date (UTC)
1999-05-10 (27 years ago)
Launch vehicle
Unknown
Launch site
Taiyaun Space Center, China (TSC)
Object type
Payload
Rocket body
Debris
Shape & HBR
Unknown shape, 0.1 m
Radar Cross Section
Medium (>0.1 m² and <1 m²)

Expand to show TLE details & history
Last TLE update: 10 hours ago

TLE from 10 hours ago
0 FENGYUN 1C DEB
1 29976U 99025LA  26170.49280762 -.00000099  00000-0 -29705-4 0  9999
2 29976  98.9251 167.8915 0268697  77.7738  70.7265 13.98315623989748
Epoch: 2026-06-19T11:49Z
TLE epoch observation values (Epoch: 2026-06-19T11:49:38.578Z)
Latitude
28.22958°
Longitude
-92.42949°
Altitude
843.261 km
Speed
7.464 km/s
True Right ascension
23h 30m 48s
True Declination
28° 05' 18"
Sunlit
Object was in daylight at epoch
Visualization orbit readout
Latitude
Unknown
Longitude
Unknown
Altitude
Unknown
Speed
Unknown
Apparent Right ascension
Unknown
Apparent Declination
Unknown
Sunlit
N/A
Visualization observer readout
Local Sidereal Time
08:44:09
Azimuth
Unknown
Elevation
Unknown
Doppler factor
Unknown
Orbital elements
Apogee altitude
1,092.305 km
Perigee altitude
701.353 km
Semi-major axis
7,274.966 km
Eccentricity
0.02687
Inclination
98.9251°
RAAN
167.8915°
Arg. of periapsis
77.7738°
True anomaly
73.66425°
Mean anomaly
70.7265°
Eccentric anomaly
72.19226°
Mean motion
3.49781 °/min
Orbital period
102.92 mins
BSTAR
-0.000029705
Loading maneuver chart data...
Computing Atmospheric mass density...

Documentation

Showing up to 5 results
|